This is the latest recevied weather packets stored in our database for station/object N9GKE-1. If no packets are shown the sender has not sent any weather packets the latest 10 day(s).
| Time | Temp. | Humidity | Pressure | Rain* | Wind** | Luminosity | Snow |
|---|---|---|---|---|---|---|---|
| 1777913354 | 22.22° C | 54% | 1003.8 hPa | 0 mm | - | - | - |
| 1777912978 | 22.78° C | 53% | 1003.8 hPa | 0 mm | - | - | - |
| 1777912751 | 22.78° C | 54% | 1003.9 hPa | 0 mm | - | - | - |
| 1777912377 | 22.22° C | 55% | 1003.9 hPa | 0 mm | - | - | - |
| 1777912152 | 22.22° C | 54% | 1004 hPa | 0 mm | - | - | - |
| 1777911777 | 22.22° C | 56% | 1004.1 hPa | 0 mm | - | - | - |
| 1777911551 | 22.22° C | 57% | 1004.2 hPa | 0 mm | - | - | - |
| 1777911177 | 21.67° C | 55% | 1004.3 hPa | 0 mm | - | - | - |
| 1777910949 | 22.22° C | 55% | 1004.3 hPa | 0 mm | - | - | - |
| 1777910577 | 22.22° C | 56% | 1004.3 hPa | 0 mm | - | - | - |
| 1777910350 | 21.67° C | 57% | 1004.4 hPa | 0 mm | - | - | - |
| 1777909977 | 21.67° C | 56% | 1004.3 hPa | 0 mm | - | - | - |
| 1777909751 | 21.67° C | 56% | 1004.4 hPa | 0 mm | - | - | - |
| 1777909378 | 21.11° C | 58% | 1004.5 hPa | 0 mm | - | - | - |
| 1777909150 | 21.11° C | 56% | 1004.5 hPa | 0 mm | - | - | - |
| 1777908778 | 21.11° C | 58% | 1004.7 hPa | 0 mm | - | - | - |
| 1777908551 | 21.11° C | 58% | 1004.8 hPa | 0 mm | - | - | - |
| 1777908178 | 20.56° C | 59% | 1004.8 hPa | 0 mm | - | - | - |
| 1777907950 | 20.56° C | 59% | 1005 hPa | 0 mm | - | - | - |
| 1777907578 | 20.56° C | 59% | 1005.1 hPa | 0 mm | - | - | - |
| 1777907351 | 20.56° C | 60% | 1005.1 hPa | 0 mm | - | - | - |
| 1777906977 | 20° C | 59% | 1005.2 hPa | 0 mm | - | - | - |
| 1777906750 | 20° C | 61% | 1005.1 hPa | 0 mm | - | - | - |
| 1777906377 | 20° C | 61% | 1005.4 hPa | 0 mm | - | - | - |
| 1777906150 | 19.44° C | 61% | 1005.4 hPa | 0 mm | - | - | - |
* Rain latest hour (hover to see other rain measurements)
** Current wind speed in m/s (hover to see current wind gust speed)